Showing default

DRAGRACER 2(AUGURY), 46955

Orbit data source: Space-Track

DRAGRACER 2(AUGURY), 46955 is a payload satellite owned by TriSept (US) in SSO that was launched on Fri, 20 Nov 2020 UTC via an ELECTRON launch vehicle from the Rocket Lab Launch Complex (RLLC). Payload-class satellites include a variety of spacecraft equipped with specific instruments for various scientific and technological missions. These include communications satellites like Starlink; space stations such as the ISS; scientific satellites like the Hubble; Earth observation satellites from companies like Planet Labs, Umbra, and HawkEye 360; GPS; miniature CubeSats for education and research; and military/defense satellites.

Loading next visibility...
Identifier
46955, 2020-085AC
Orbit
SSO
Country
Flag of USUS
Related business
Manufacturer
Millenium ES
Mission
Operational Commercial Technology
Bus & Motor
CUBESAT 6U, Unknown motor
Mass
12 kg wet, 12 kg dry
Launch date (UTC)
2020-11-20 (5 years ago)
Launch vehicle
ELECTRON
Launch site
Rocket Lab Launch Complex (RLLC)
Object type
Payload
Rocket body
Debris
Shape & HBR
Box, Unknown HBR
Radar Cross Section
0.080 m², Medium (>0.1 m² and < 1m²)

Expand to show TLE details & history
Last TLE update: 10 hours ago

TLE from 10 hours ago
0 DRAGRACER 2(AUGURY)
1 46955U 20085AC  25292.22146025  .00042248  00000-0  62859-3 0  9999
2 46955  97.5831 106.0064 0007759  80.5132 279.6998 15.55000008274230
Epoch: 2025-10-19T05:18Z
TLE epoch observation values (Epoch: 2025-10-19T05:18:54.165Z)
Latitude
-0.00005°
Longitude
-1.66052°
Altitude
404.402 km
Speed
7.668 km/s
True Right ascension
07h 04m 01s
True Declination
0° 00' 00"
Sunlit
Object was in daylight at epoch
Visualization orbit readout
Latitude
Unknown
Longitude
Unknown
Altitude
Unknown
Speed
Unknown
Apparent Right ascension
Unknown
Apparent Declination
Unknown
Sunlit
N/A
Visualization observer readout
Local Sidereal Time
10:08:47
Azimuth
Unknown
Elevation
Unknown
Doppler factor
Unknown
Orbital elements
Apogee altitude
404.338 km
Perigee altitude
393.821 km
Semi-major axis
6,777.217 km
Eccentricity
0.00078
Inclination
97.5831°
RAAN
106.0064°
Arg. of periapsis
80.5132°
True anomaly
279.61215°
Mean anomaly
279.6998°
Eccentric anomaly
279.65597°
Mean motion
3.89015 °/min
Orbital period
92.54 mins
BSTAR
0.00062859
Loading maneuver chart data...
Computing Atmospheric mass density...

Documentation

Showing up to 5 results
|